Back to catalog

STARLINK-32425

AliveCommunicationsVLEO
NORAD 61216·PAYLOAD·🇺🇸 United States

Launched Sep 20, 2024 from Vandenberg Space Force Base

Loading…

Next Passes (next 24 hours)

TLE

FreshSource: CelesTrak SupGP

Epoch: Sep 14, 2026, 22:24 UTC

1 61216C 24171S   26257.93381944 -.00047111  00000+0 -15147-2 0  2576
2 61216  53.1580 162.5459 0001503  83.6029 327.7101 15.31730337    14

Track STARLINK-32425 in real time with AllMySat

Download on the App Store